Location: Martinez
(33.5170°N, 82.0760°W)
Time: 09:00:13
(UTC-04:00)

HST - Visible Passes

Search period start: 24 July 2014 00:00
Search period end: 03 August 2014 00:00
Orbit: 548 x 552 km, 28.5° (Epoch: 24 July)

Date Brightness Start Highest point End Pass type
(mag) Time Alt. Az. Time Alt. Az. Time Alt. Az.
24 Jul 1.4 21:02:15 10° WSW 21:06:13 42° S 21:10:11 10° ESE visible
24 Jul 2.4 22:43:39 10° WSW 22:45:57 24° SW 22:45:57 24° SW visible
25 Jul 1.5 20:55:25 10° WSW 20:59:22 41° S 21:03:19 10° ESE visible
25 Jul 2.4 22:36:56 10° WSW 22:39:21 23° SW 22:39:21 23° SW visible
26 Jul 2.5 22:30:18 10° WSW 22:32:45 21° SW 22:32:45 21° SW visible
27 Jul 2.7 22:23:46 10° WSW 22:26:08 18° SSW 22:26:08 18° SSW visible
28 Jul 2.9 22:17:26 10° SW 22:19:33 14° SSW 22:19:33 14° SSW visible
29 Jul 3.2 22:11:39 10° SW 22:12:46 11° SSW 22:12:59 11° SSW visible
